Location: ?????????
(38.4921°N, 22.9787°E)
Time: 03:18:20
(UTC+00:00)

Cosmos 1758 Rocket - Pass Details

Date: 08 December 2025
Orbit: 595 x 629 km, 82.5° (Epoch: 15 January)

Event Time Altitude Azimuth Distance (km) Brightness Sun altitude
Rises 04:54:25 0° 192° (SSW) 2,899 7.1 -7.6°
Reaches altitude 10° 04:56:40 10° 195° (SSW) 1,994 6.3 -7.2°
Maximum altitude 05:01:04 67° 279° (W) 680 3.6 -6.4°
Drops below altitude 10° 05:05:27 10° 2° (N) 1,993 5.9 -5.6°
Sets 05:07:42 0° 5° (N) 2,898 6.8 -5.2°
